Weather reports worldwide

Advertisment
Öhringen, Germany (10742): temperature & dewpoint: 27.06.2020 19:00:00 - 03.07.2020 19:00:00 (CEST)Öhringen, Germany (10742): temperature 5cm & temperature -5cm: 27.06.2020 19:00:00 - 03.07.2020 19:00:00 (CEST)Öhringen, Germany (10742): temperature -20cm & temperature -100cm: 27.06.2020 19:00:00 - 03.07.2020 19:00:00 (CEST)Öhringen, Germany (10742): wind speed & gusts: 27.06.2020 19:00:00 - 03.07.2020 19:00:00 (CEST)Öhringen, Germany (10742): wind direction: 27.06.2020 19:00:00 - 03.07.2020 19:00:00 (CEST)Öhringen, Germany (10742): reduced air pressure: 27.06.2020 19:00:00 - 03.07.2020 19:00:00 (CEST)Öhringen, Germany (10742): visibility: 27.06.2020 19:00:00 - 03.07.2020 19:00:00 (CEST)Öhringen, Germany (10742): sunshine duration: 27.06.2020 19:00:00 - 03.07.2020 19:00:00 (CEST)Öhringen, Germany (10742): precipitation: 27.06.2020 19:00:00 - 03.07.2020 19:00:00 (CEST)
Date & Time tt [°C] td [°C] tt 5cm [°C] tt -5cm [°C] tt -20cm [°C] tt -100cm [°C] ff [km/h] ff [kn] fx [km/h] fx [kn] dd ppp [hPa] vv [km] sd [min] rr [mm]
03.07.2020 19:00:00 - - - - - - - - - - - - - - -
03.07.2020 18:00:00 - - - - - - - - - - - - - - -
03.07.2020 17:00:00 - - - - - - - - - - - - - - -
03.07.2020 16:00:00 - - - - - - - - - - - - - - -
03.07.2020 15:00:00 - - - - - - - - - - - - - - -
03.07.2020 14:00:00 - - - - - - - - - - - - - - -
03.07.2020 13:00:00 - - - - - - - - - - - - - - -
03.07.2020 12:00:00 - - - - - - - - - - - - - - -
03.07.2020 11:00:00 - - - - - - - - - - - - - - -
03.07.2020 10:00:00 18,5 9,3 26,5 23,0 21,0 18,0 13 7 21 11 W 1018,8 49 60 0,0
03.07.2020 09:00:00 17,3 9,7 22,7 21,0 21,0 18,0 11 6 18 10 W 1019,0 48 54 0,0
03.07.2020 08:00:00 16,0 10,5 17,7 19,3 21,2 18,0 7 4 12 6 WNW 1018,8 57 34 0,0
03.07.2020 07:00:00 15,1 11,2 16,0 18,4 21,4 18,0 0 0 5 3 N 1018,4 64 49 0,0
03.07.2020 06:00:00 14,4 11,1 11,6 18,5 21,6 18,0 3 2 10 5 SW 1017,9 73 0 0,0
03.07.2020 05:00:00 15,4 10,7 14,2 19,2 21,8 18,0 8 4 11 6 W 1017,3 72 0 0,0
03.07.2020 04:00:00 15,5 10,8 14,9 19,3 22,1 18,0 4 2 8 4 SW 1017,0 66 0 0,0
03.07.2020 03:00:00 15,8 10,2 13,8 19,7 22,3 18,0 6 3 7 4 NNW 1016,6 75 0 0,0
03.07.2020 02:00:00 16,8 9,8 15,3 20,2 22,5 18,0 3 2 9 5 NW 1016,5 73 0 0,0
03.07.2020 01:00:00 17,3 9,8 16,2 20,6 22,8 18,0 4 2 22 12 WNW 1016,1 75 0 0,0
03.07.2020 00:00:00 18,0 10,0 17,1 21,0 23,0 18,0 16 9 27 15 NW 1015,8 72 0 0,0
02.07.2020 23:00:00 18,8 10,8 17,9 21,5 23,2 18,0 16 8 28 15 NW 1014,8 65 0 0,0
02.07.2020 22:00:00 19,8 9,2 17,7 22,2 23,4 18,0 11 6 25 13 WSW 1013,8 71 0 0,0
02.07.2020 21:00:00 20,8 9,8 19,6 23,2 23,5 18,0 15 8 27 15 W 1013,2 59 10 0,0
02.07.2020 20:00:00 21,9 10,6 22,3 24,3 23,6 18,0 15 8 40 22 W 1012,3 66 22 0,0
02.07.2020 19:00:00 23,0 10,2 24,7 25,9 23,5 18,0 23 12 36 19 W 1011,8 62 51 0,0
02.07.2020 18:00:00 22,4 11,9 24,5 26,2 23,4 17,9 24 13 39 21 W 1011,6 75 26 0,0
02.07.2020 17:00:00 22,3 12,5 26,2 25,8 23,3 17,9 18 10 34 19 WSW 1011,9 47 3 0,0
02.07.2020 16:00:00 21,7 13,1 24,3 26,2 23,2 17,9 18 10 33 18 W 1012,3 62 10 0,0
02.07.2020 15:00:00 21,0 13,3 24,0 25,4 23,0 17,9 15 8 28 15 WSW 1012,8 64 0 0,0
02.07.2020 14:00:00 21,8 13,5 27,8 26,1 22,8 17,9 13 7 26 14 WSW 1012,5 75 3 0,0
02.07.2020 13:00:00 21,1 13,2 25,2 26,0 22,6 17,9 12 6 24 13 WSW 1012,8 71 11 0,0
02.07.2020 12:00:00 21,5 14,8 28,6 25,1 22,5 17,9 14 7 25 13 WNW 1012,7 75 29 0,0
02.07.2020 11:00:00 20,2 15,9 24,7 23,2 22,5 17,9 8 5 17 9 WSW 1012,7 75 1 0,1
02.07.2020 10:00:00 18,8 15,7 20,2 22,4 22,6 17,9 6 3 11 6 W 1012,8 30 0 0,0
02.07.2020 09:00:00 18,5 15,6 20,3 21,7 22,7 17,9 3 2 13 7 NNW 1012,5 71 0 0,0
02.07.2020 08:00:00 18,4 15,4 18,4 21,8 22,9 17,9 10 5 29 15 NNW 1012,0 11 0 0,0
02.07.2020 07:00:00 20,1 15,0 19,9 21,8 23,1 17,9 11 6 21 11 W 1011,5 75 16 0,0
02.07.2020 06:00:00 20,2 14,8 18,9 21,8 23,3 17,9 8 4 18 10 SW 1010,9 53 0 0,0
02.07.2020 05:00:00 20,4 15,1 19,4 22,2 23,5 17,9 8 4 16 9 WSW 1010,8 67 0 0,0
02.07.2020 04:00:00 20,8 15,1 19,4 22,6 23,8 17,9 7 4 20 11 WSW 1010,6 55 0 0,0
02.07.2020 03:00:00 21,2 15,3 20,1 23,0 24,0 17,9 9 5 18 10 WSW 1010,8 75 0 0,0
02.07.2020 02:00:00 21,8 15,9 21,1 23,6 24,3 17,9 10 5 14 8 W 1010,4 68 0 0,0
02.07.2020 01:00:00 22,1 15,9 21,7 24,0 24,5 17,9 8 4 14 8 W 1010,1 69 0 0,0
02.07.2020 00:00:00 22,3 15,6 20,7 24,4 24,8 17,9 8 5 15 8 WSW 1009,8 51 0 0,0
01.07.2020 23:00:00 23,4 15,6 21,2 25,2 25,0 17,9 9 5 14 7 W 1008,9 67 0 0,0
01.07.2020 22:00:00 25,0 15,1 23,2 26,4 25,1 17,9 5 3 9 5 WNW 1007,9 63 0 -
01.07.2020 21:00:00 - - - - - - - - - - - - - - -
01.07.2020 20:00:00 - - - - - - - - - - - - - - -
01.07.2020 19:00:00 - - - - - - - - - - - - - - -
01.07.2020 18:00:00 - - - - - - - - - - - - 75 - -
01.07.2020 17:00:00 - - - - - - - - - - - - - - -
01.07.2020 16:00:00 - - - - - - - - - - - - - - -
01.07.2020 15:00:00 - - - - - - - - - - - - - - -
01.07.2020 14:00:00 - - - - - - - - - - - - - - -
01.07.2020 13:00:00 - - - - - - - - - - - - - - -
01.07.2020 12:00:00 24,9 14,9 33,4 28,8 20,9 17,9 14 8 29 16 W 1009,8 64 60 0,0
01.07.2020 11:00:00 24,0 14,1 31,8 26,5 20,4 17,9 15 8 29 16 W 1010,1 59 59 0,0
01.07.2020 10:00:00 23,0 13,9 30,1 24,2 20,1 17,9 12 6 22 12 WSW 1010,4 67 60 0,0
01.07.2020 09:00:00 22,1 13,3 26,5 21,6 20,0 17,9 8 4 14 7 SSW 1010,7 41 60 0,0
01.07.2020 08:00:00 19,6 13,9 23,0 19,0 20,1 17,9 3 2 7 4 S 1011,0 44 60 0,0
01.07.2020 07:00:00 15,9 12,5 17,5 17,3 20,3 17,9 3 1 8 4 ESE 1011,4 55 52 0,0
01.07.2020 06:00:00 14,0 12,1 11,6 17,1 20,6 17,9 2 1 6 3 ESE 1011,7 47 0 0,0
01.07.2020 05:00:00 13,8 12,0 12,3 17,5 20,8 17,9 5 3 10 6 ESE 1011,8 52 0 0,0
01.07.2020 04:00:00 14,2 12,0 13,1 17,8 21,1 17,9 6 4 11 6 SSE 1011,9 59 0 0,0
01.07.2020 03:00:00 14,3 12,1 13,3 18,3 21,4 17,9 8 4 9 5 SSE 1012,3 59 0 0,0
01.07.2020 02:00:00 15,4 12,3 14,1 18,8 21,7 17,9 6 4 10 5 SE 1012,2 61 0 0,0
01.07.2020 01:00:00 15,9 12,4 14,7 19,3 21,9 17,9 7 4 10 5 SE 1012,3 54 0 0,0
01.07.2020 00:00:00 16,8 12,7 14,5 20,0 22,2 17,9 4 2 11 6 ESE 1012,3 59 0 0,0
30.06.2020 23:00:00 18,4 12,5 15,6 20,7 22,4 17,9 6 3 15 8 SW 1012,2 65 0 0,0
30.06.2020 22:00:00 19,7 12,3 17,2 21,7 22,6 17,9 7 4 18 10 WSW 1011,8 62 8 0,0
30.06.2020 21:00:00 20,5 12,0 19,3 22,9 22,7 17,9 14 7 35 19 W 1011,5 56 60 0,0
30.06.2020 20:00:00 21,6 11,6 23,1 24,3 22,7 17,9 18 10 32 17 W 1011,5 53 43 0,0
30.06.2020 19:00:00 21,5 11,6 23,6 25,1 22,6 17,9 19 10 32 17 W 1011,6 70 5 0,0
30.06.2020 18:00:00 21,4 11,5 24,4 25,9 22,4 17,9 14 8 32 17 WNW 1011,9 60 0 0,0
30.06.2020 17:00:00 21,8 10,8 25,8 26,9 22,1 17,9 18 10 35 19 W 1012,1 62 0 0,0
30.06.2020 16:00:00 22,3 9,5 28,7 28,3 21,6 17,9 17 9 37 20 W 1012,2 56 35 0,0
30.06.2020 15:00:00 22,1 9,0 29,5 28,7 21,0 17,9 19 10 38 20 W 1012,5 45 56 0,0
30.06.2020 14:00:00 21,7 10,4 29,1 26,7 20,5 17,9 18 10 37 20 W 1012,8 63 21 0,0
30.06.2020 13:00:00 20,3 8,4 28,2 25,5 20,1 17,9 21 12 41 22 W 1013,4 51 35 0,0
30.06.2020 12:00:00 19,9 8,1 27,3 23,3 19,8 17,9 21 12 36 19 W 1013,9 59 24 0,0
30.06.2020 11:00:00 19,6 8,9 25,6 21,6 19,7 17,9 16 9 35 19 WSW 1013,9 75 26 0,0
30.06.2020 10:00:00 18,2 9,2 21,5 19,3 19,6 17,9 18 10 33 18 WSW 1014,4 47 21 0,0
30.06.2020 09:00:00 17,6 9,4 20,2 18,6 19,6 17,9 16 8 26 14 WSW 1014,3 30 29 0,0
30.06.2020 08:00:00 16,5 9,8 17,7 17,5 19,8 17,9 10 5 17 9 W 1014,4 49 58 0,0
30.06.2020 07:00:00 14,3 9,4 14,3 16,1 20,0 17,9 5 3 8 5 WNW 1014,5 58 26 0,0
30.06.2020 06:00:00 13,3 9,6 10,2 16,0 20,3 17,9 4 2 9 5 WNW 1014,4 65 0 0,0
30.06.2020 05:00:00 13,4 9,5 11,7 16,2 20,6 17,9 4 2 8 4 SW 1014,2 53 0 0,0
30.06.2020 04:00:00 13,9 10,2 10,4 16,7 20,9 17,9 4 2 8 5 SSW 1014,0 57 0 0,0
30.06.2020 03:00:00 14,6 11,0 11,5 17,1 21,2 17,9 4 2 8 5 SSW 1014,0 68 0 0,0
30.06.2020 02:00:00 15,1 11,9 11,8 17,7 21,5 17,9 5 3 11 6 WSW 1014,2 66 0 0,0
30.06.2020 01:00:00 15,9 12,8 13,2 18,5 21,8 17,9 9 5 14 8 W 1014,1 38 0 0,0
30.06.2020 00:00:00 17,0 13,2 15,7 19,3 22,1 17,9 9 5 17 9 W 1013,7 74 0 0,0
29.06.2020 23:00:00 17,6 13,6 16,2 19,7 22,3 17,9 6 3 14 8 WSW 1013,4 70 0 0,0
29.06.2020 22:00:00 18,1 13,9 15,1 20,7 22,5 17,8 7 4 13 7 WSW 1013,0 74 8 0,0
29.06.2020 21:00:00 18,3 14,0 16,9 22,0 22,7 17,8 7 4 13 7 W 1012,7 75 26 0,0
29.06.2020 20:00:00 17,6 14,0 17,1 22,7 22,8 17,8 6 4 46 25 SW 1012,8 71 0 0,4
29.06.2020 19:00:00 20,9 10,6 21,2 24,3 22,7 17,8 12 6 32 17 SW 1012,2 75 2 0,0
29.06.2020 18:00:00 22,4 8,9 25,2 26,2 22,6 17,8 18 10 31 17 W 1012,3 75 40 0,0
29.06.2020 17:00:00 20,8 8,8 22,8 25,7 22,3 17,8 22 12 38 21 WNW 1012,8 75 16 0,0
29.06.2020 16:00:00 22,0 10,2 25,1 27,4 21,9 17,8 18 10 39 21 W 1012,7 73 28 0,0
29.06.2020 15:00:00 21,3 10,2 25,5 28,1 21,4 17,8 17 9 32 17 WSW 1013,2 75 45 0,0
29.06.2020 14:00:00 22,0 12,2 29,3 26,4 20,9 17,8 16 9 33 18 WSW 1013,7 75 38 0,0
29.06.2020 13:00:00 21,2 11,6 29,2 25,3 20,6 17,8 16 9 36 19 SW 1014,1 54 50 0,0
29.06.2020 12:00:00 18,8 11,8 25,1 22,9 20,5 17,8 17 9 28 15 WSW 1014,8 75 35 0,0
29.06.2020 11:00:00 16,9 12,9 17,0 20,5 20,4 17,8 14 7 24 13 WNW 1015,4 57 1 0,0
29.06.2020 10:00:00 16,5 13,2 17,6 19,8 20,4 17,8 11 6 24 13 W 1015,2 57 2 0,0
29.06.2020 09:00:00 16,1 13,0 17,1 19,4 20,5 17,8 14 8 22 12 WSW 1015,3 50 11 0,0
29.06.2020 08:00:00 15,3 13,6 15,8 18,3 20,6 17,8 5 3 10 5 SW 1014,8 48 0 0,0
29.06.2020 07:00:00 14,7 13,5 14,7 17,9 20,8 17,7 4 2 9 5 S 1014,7 35 0 0,0
29.06.2020 06:00:00 14,5 13,6 14,4 17,8 21,0 17,7 5 3 8 4 SSW 1015,3 35 0 0,0
29.06.2020 05:00:00 14,1 13,3 13,5 18,0 21,2 17,7 4 2 8 4 W 1015,5 33 0 0,0
29.06.2020 04:00:00 14,5 13,3 14,4 18,4 21,4 17,7 5 3 9 5 W 1016,1 48 0 0,0
29.06.2020 03:00:00 14,5 13,2 14,4 18,5 21,6 17,7 4 2 9 5 W 1016,5 58 0 0,0
29.06.2020 02:00:00 14,4 13,3 14,3 18,7 21,9 17,7 5 3 12 7 SSW 1016,7 71 0 0,0
29.06.2020 01:00:00 14,6 13,6 14,5 19,0 22,2 17,7 5 3 11 6 SSW 1017,0 31 0 1,4
29.06.2020 00:00:00 14,7 13,4 14,5 19,4 22,4 17,7 9 5 20 11 W 1017,1 14 0 0,4
28.06.2020 23:00:00 15,3 13,5 14,7 19,9 22,7 17,7 5 3 24 13 WSW 1016,8 26 0 0,6
28.06.2020 22:00:00 16,2 13,2 15,0 20,5 23,0 17,7 10 5 22 12 W 1016,8 31 0 0,2
28.06.2020 21:00:00 17,9 11,1 17,5 21,4 23,2 17,7 11 6 28 15 WNW 1016,4 62 0 0,0
28.06.2020 20:00:00 19,3 10,6 19,4 22,3 23,3 17,6 19 10 29 16 W 1016,2 63 0 0,0
28.06.2020 19:00:00 20,4 10,6 20,6 23,3 23,4 17,6 17 9 36 19 WNW 1015,9 75 3 0,0
28.06.2020 18:00:00 22,0 12,3 23,4 24,6 23,4 17,6 22 12 39 21 WNW 1015,2 56 34 0,0
28.06.2020 17:00:00 23,0 13,6 24,2 25,0 23,2 17,6 17 9 33 18 W 1014,6 47 0 0,0
28.06.2020 16:00:00 24,6 13,9 27,9 26,8 23,0 17,6 16 8 31 17 WNW 1014,1 50 18 0,0
28.06.2020 15:00:00 25,1 16,0 31,5 27,6 22,8 17,6 9 5 22 12 WSW 1014,2 62 37 0,0
28.06.2020 14:00:00 22,4 17,4 26,8 24,0 22,8 17,6 11 6 24 13 S 1014,8 54 2 0,0
28.06.2020 13:00:00 21,9 16,0 23,8 24,5 22,7 17,6 9 5 26 14 WSW 1015,4 50 2 0,0
28.06.2020 12:00:00 21,6 16,6 22,6 25,6 22,6 17,6 15 8 27 14 W 1015,5 48 13 0,0
28.06.2020 11:00:00 20,9 17,2 23,6 23,9 22,5 17,5 14 8 27 15 WSW 1015,5 62 6 0,0
28.06.2020 10:00:00 19,5 17,9 20,7 22,4 22,6 17,5 9 5 19 10 WSW 1015,6 31 1 0,0
28.06.2020 09:00:00 18,6 17,9 19,5 21,5 22,7 17,5 6 3 21 11 SSW 1015,4 24 0 4,4
28.06.2020 08:00:00 18,8 17,0 18,1 21,9 22,9 17,5 14 8 22 12 W 1015,3 8 0 1,1
28.06.2020 07:00:00 19,7 16,0 18,9 21,9 23,0 17,5 7 4 11 6 WNW 1014,3 32 5 0,0
28.06.2020 06:00:00 19,1 15,8 18,5 21,6 23,2 17,5 2 1 10 5 WNW 1013,8 49 0 0,0
28.06.2020 05:00:00 18,5 15,8 17,6 21,7 23,5 17,5 5 3 10 5 E 1013,7 41 0 0,0
28.06.2020 04:00:00 17,6 15,4 16,7 21,8 23,7 17,5 8 4 9 5 E 1013,7 35 0 0,0
28.06.2020 03:00:00 19,0 15,9 17,2 22,3 24,0 17,5 7 4 10 5 ESE 1014,1 50 0 0,0
28.06.2020 02:00:00 19,3 16,0 17,9 22,8 24,2 17,5 5 3 7 4 SE 1014,3 45 0 0,0
28.06.2020 01:00:00 20,0 16,2 18,8 23,4 24,4 17,4 6 4 10 6 SE 1014,0 47 0 0,0
28.06.2020 00:00:00 21,1 16,5 18,4 24,1 24,7 17,4 0 0 10 5 N 1013,7 54 0 0,0
27.06.2020 23:00:00 22,0 16,5 20,5 24,8 24,9 17,4 8 4 11 6 SSE 1013,3 53 0 0,0
27.06.2020 22:00:00 23,3 17,3 21,4 25,7 25,0 17,4 5 3 13 7 SE 1012,6 47 4 0,0
27.06.2020 21:00:00 25,7 17,1 24,4 27,0 25,0 17,4 7 4 20 11 SSW 1011,9 59 42 0,0
27.06.2020 20:00:00 27,2 15,1 29,3 28,4 24,9 17,4 11 6 23 12 WSW 1011,5 58 55 0,0
27.06.2020 19:00:00 27,6 15,7 31,5 29,5 24,7 17,4 13 7 27 15 SW 1011,5 75 52 0,0

tt = temperature
td = dewpoint
tt 5cm = temperature 5cm
tt -5cm = temperature -5cm
tt -20cm = temperature -20cm
tt -100cm = temperature -100cm
ff = wind speed
fx = gusts
dd = wind direction
ppp = reduced air pressure
vv = visibility
sd = sunshine duration
rr = precipitation

Next stations